EHI
60 67 75 81 82 75 66 58 48 35 26 23 20 16 12 8 5 2 1 1 2 2 2 4 4 4 2 1 0 0 0 0 0 0 0 0 0 0 0 0 0 0 0
67 71 76 82 85 80 71 62 52 38 28 24 20 16 12 8 6 5 3 3 3 2 3 4 4 4 3 1 0 1 1 0 0 0 0 0 0 0 0 0 0 0 0
75 75 78 83 88 86 78 68 58 44 33 26 23 19 15 11 9 8 7 5 4 4 4 4 4 3 3 2 1 1 1 0 0 0 0 0 0 0 0 0 0 0 0
80 79 80 85 88 87 82 74 65 52 39 30 26 23 19 14 11 10 9 6 4 4 6 5 4 3 3 1 0 1 1 0 0 0 0 0 0 0 0 0 0 0 0
81 82 83 85 86 85 84 80 72 59 45 33 27 23 18 13 11 11 11 7 4 5 6 5 3 2 2 1 0 0 0 0 0 0 0 0 0 0 0 0 0 0 0
80 82 84 85 85 85 85 85 79 67 52 37 27 21 16 12 12 14 14 10 7 6 6 5 3 1 1 0 0 0 0 0 0 0 0 0 0 0 0 0 0 0 0
77 81 84 84 85 86 87 88 85 75 61 46 33 24 18 14 14 17 17 13 10 8 8 7 4 2 1 0 0 0 0 0 0 0 0 0 0 0 0 0 0 0 0
78 81 84 84 84 86 87 87 84 77 69 58 44 33 24 16 13 14 15 12 10 9 9 10 8 5 2 1 0 0 0 0 0 0 0 0 0 0 0 0 0 0 0
79 80 82 83 84 85 85 84 82 76 71 65 55 43 32 22 13 11 12 11 9 9 10 11 10 7 4 1 0 0 0 1 0 0 0 0 0 0 0 0 0 0 0
71 74 78 82 85 83 81 81 80 75 70 66 61 49 37 26 18 13 11 10 10 10 12 13 12 9 5 3 1 0 0 0 0 0 0 0 0 0 0 0 0 0 0
59 66 73 79 83 81 78 78 77 74 70 67 63 52 39 29 22 17 13 11 10 11 13 14 13 11 10 7 4 2 1 1 0 0 0 0 0 0 0 0 0 0 0
50 58 69 75 79 78 75 75 75 73 71 68 63 55 43 33 26 20 16 12 10 10 14 17 15 13 14 13 9 6 3 2 1 0 0 0 0 0 0 0 0 0 0
42 49 61 68 71 73 72 71 71 72 72 70 63 55 45 35 27 21 18 16 14 14 17 18 16 15 15 14 11 7 4 2 1 0 0 0 0 0 0 0 0 0 0
37 42 51 58 62 65 66 67 68 69 70 68 62 52 41 33 26 22 20 19 18 19 20 20 18 17 16 14 11 6 2 1 0 0 0 0 0 0 0 0 0 0 0
35 40 48 53 55 58 60 62 64 64 65 64 57 46 36 30 26 23 22 21 20 21 21 21 20 18 16 14 10 6 2 1 1 0 0 0 0 0 0 0 0 0 0
34 37 44 48 49 51 54 56 56 57 59 59 52 41 32 26 25 25 23 21 21 21 21 22 21 18 15 12 8 5 4 3 2 1 0 0 0 0 0 0 0 0 0
32 32 36 40 41 40 42 44 44 46 50 50 46 38 31 24 23 23 22 20 19 18 19 20 19 16 14 10 5 2 3 3 2 2 1 0 0 0 0 0 0 0 0
27 28 31 34 34 31 31 33 34 37 40 40 38 36 31 26 23 21 20 19 17 15 16 16 15 14 13 9 3 1 1 1 1 1 1 0 0 0 0 0 0 0 0
23 25 28 31 31 30 31 32 32 33 36 35 33 31 29 27 25 22 20 19 16 14 12 13 13 13 12 7 3 1 0 0 0 0 0 0 0 0 0 0 0 0 0
23 25 28 29 30 33 36 35 32 32 34 33 30 26 25 26 25 23 21 19 16 12 11 11 11 11 9 6 3 1 1 1 0 0 0 0 0 0 0 0 0 0 0
23 27 31 30 30 33 36 34 30 29 30 29 26 24 23 24 24 23 22 19 14 11 9 8 7 7 6 4 2 1 1 1 0 0 0 0 0 0 0 0 0 0 0
24 27 31 30 29 31 32 31 28 27 26 25 23 21 19 19 19 20 20 17 12 8 6 5 4 4 4 3 2 1 1 1 0 0 0 0 0 0 0 0 0 0 0
20 24 28 30 29 29 28 27 26 26 25 23 21 17 13 11 12 13 13 11 8 5 5 4 3 3 3 3 3 1 0 0 0 0 0 0 0 0 0 0 0 0 0
12 17 23 26 26 24 23 22 22 23 22 19 17 14 10 7 6 5 5 5 4 4 4 4 4 3 3 3 3 2 1 0 0 0 0 0 0 0 0 0 0 0 0
9 12 17 21 21 19 18 18 18 18 16 14 13 12 10 8 5 2 1 2 2 3 3 4 4 3 3 3 3 2 1 0 0 0 0 0 0 0 0 0 0 0 0
11 12 15 18 18 17 16 17 17 15 13 12 11 11 11 10 6 3 2 2 1 1 1 2 3 3 3 3 3 2 1 0 0 0 0 0 0 0 0 0 0 0 0
Wind_Speed
13 13 14 16 14 13 12 12 11 9 7 5 4 5 4 4 3 4 5 6 5 5 5 3 4 4 3 4 4 3 2 1 1 2 2 2 1 1 2 3 3 5 5
12 13 13 15 16 15 14 12 12 10 9 6 4 4 4 3 4 4 4 6 6 6 6 5 4 4 3 4 3 3 2 1 2 3 2 1 3 2 1 2 3 4 3
19 17 16 15 16 16 16 14 12 11 9 8 5 4 3 2 2 3 4 5 6 6 5 6 5 5 4 4 4 4 4 2 1 2 4 3 3 2 2 2 2 3 3
17 17 17 17 18 17 15 13 13 11 10 9 8 8 6 5 5 4 4 4 5 6 6 6 6 5 4 5 5 4 3 4 2 1 1 3 4 3 1 2 2 3 4
20 20 20 19 18 16 15 13 13 12 10 10 10 9 6 5 3 4 6 5 4 5 6 6 6 5 4 5 5 4 4 3 4 3 2 1 1 2 2 2 2 2 3
20 19 16 14 13 15 14 14 14 13 12 11 10 10 9 7 6 6 6 5 4 4 5 6 5 5 4 5 5 4 5 4 4 3 3 3 3 3 3 3 2 2 3
18 17 16 16 16 17 16 15 16 14 13 12 11 11 10 9 9 8 8 6 5 4 6 6 5 5 5 5 5 5 4 5 4 4 3 3 3 3 3 3 2 2 2
17 18 19 18 18 18 17 16 16 14 14 13 12 10 10 8 7 8 7 7 6 6 6 6 6 6 6 6 5 4 4 4 4 5 4 3 3 3 3 4 3 1 1
17 17 17 17 17 17 17 17 17 14 14 13 11 10 9 8 8 7 7 6 5 6 7 7 7 7 6 6 5 4 5 4 4 4 4 3 3 3 3 3 4 4 2
14 15 16 16 15 15 14 14 15 15 13 13 11 10 9 9 8 7 8 7 7 6 7 7 7 7 7 6 5 4 4 5 4 4 4 4 3 2 2 2 3 3 4
14 14 13 14 13 12 13 13 13 12 11 12 11 10 9 8 8 7 8 7 7 7 7 8 8 8 7 7 6 6 5 6 5 5 5 5 4 2 2 2 2 2 3
10 11 12 11 10 11 12 13 13 13 12 12 10 10 9 8 8 8 8 8 8 8 8 7 7 8 8 7 7 8 7 7 6 6 5 5 4 3 2 2 3 2 3
7 8 9 10 11 11 11 11 12 12 11 11 10 10 9 9 9 9 8 8 8 7 7 7 8 8 8 8 8 8 7 7 7 6 6 6 5 4 3 3 3 2 2
7 8 8 9 10 9 10 10 11 10 10 10 10 10 10 10 9 9 8 8 8 8 8 8 8 8 8 8 8 7 7 7 6 6 6 6 7 6 5 4 4 3 2
7 8 8 7 8 7 7 9 9 9 10 10 10 10 9 8 8 8 8 8 8 9 8 8 7 7 7 7 8 8 8 7 6 6 6 7 8 9 7 5 4 4 3
6 6 7 7 8 8 8 8 8 8 9 9 9 8 7 7 7 7 7 7 7 7 7 8 8 8 8 10 12 9 7 7 7 7 6 6 7 8 9 9 8 7 5
5 6 7 7 7 7 7 8 7 6 7 8 6 6 6 6 7 7 7 7 7 7 7 7 7 8 9 11 12 12 8 7 7 7 6 6 6 7 5 6 6 6 7
4 5 5 4 4 5 5 5 5 6 6 6 6 5 5 5 5 5 6 6 5 6 6 7 7 7 8 11 11 11 8 7 7 7 7 7 6 6 6 5 4 4 4
4 3 4 4 4 5 5 6 5 5 5 5 5 5 5 5 5 5 5 4 4 4 5 5 6 6 7 9 11 10 6 5 7 7 7 7 6 8 8 6 4 4 4
5 4 3 4 4 4 6 6 5 5 4 4 4 4 4 5 5 5 4 3 3 4 4 3 4 5 5 7 10 11 5 5 5 4 5 8 8 8 9 6 6 5 5
6 6 5 4 3 5 6 6 5 4 3 3 3 2 2 3 3 3 2 2 2 2 2 2 2 3 4 5 7 9 6 5 5 4 4 4 8 8 9 8 6 7 5
7 7 6 5 4 5 6 6 4 2 3 4 3 3 2 2 2 3 2 2 2 2 2 1 1 2 2 3 5 7 7 6 5 4 3 3 6 7 8 6 6 6 4
6 6 6 6 6 5 5 5 2 2 4 4 3 3 3 2 2 2 2 1 1 1 1 1 1 1 1 2 4 6 6 6 4 3 4 4 5 5 4 4 5 4 2
5 5 6 6 5 5 5 4 3 3 5 5 3 3 3 3 3 2 1 1 1 1 1 1 1 1 1 1 1 2 3 3 3 2 3 4 4 3 2 1 1 1 2
5 5 5 5 4 4 5 4 3 4 5 4 3 3 3 3 4 4 3 2 1 1 2 1 1 1 2 2 3 3 2 3 4 4 3 2 2 2 1 1 1 1 1
5 5 5 4 4 4 4 3 3 4 4 3 3 2 2 2 3 3 4 8 6 5 4 3 2 1 1 1 3 4 5 5 7 6 4 2 2 2 1 1 1 0 0
Wind_Direction
177 170 169 167 164 165 166 166 164 167 159 153 152 153 162 166 166 173 170 167 167 163 157 156 155 155 155 166 157 140 137 135 123 88 34 356 323 216 200 191 182 198 202
171 173 171 170 171 172 172 170 171 171 171 168 162 158 155 165 172 177 178 175 171 170 170 161 163 164 156 160 160 144 138 169 150 134 112 21 342 318 232 196 191 197 192
179 178 177 176 176 177 177 177 176 175 174 165 150 140 121 119 158 182 187 190 177 176 173 172 167 168 165 174 178 164 155 171 209 161 146 153 214 274 307 246 205 192 197
181 181 179 179 182 182 178 175 175 176 175 170 168 167 171 179 190 184 186 192 186 180 177 175 174 174 174 178 186 176 166 157 185 221 193 171 162 160 256 307 267 218 208
184 184 185 184 182 180 178 176 175 178 178 179 177 177 183 185 174 172 178 188 193 191 184 179 176 176 179 183 183 173 176 169 174 183 182 166 144 144 151 230 279 280 242
189 187 186 176 177 178 178 176 177 181 181 182 182 185 185 181 174 180 185 191 196 199 193 185 182 182 181 183 184 180 182 186 179 180 174 167 169 186 168 191 227 246 262
187 183 179 178 180 180 181 180 181 184 185 185 189 191 189 185 186 188 190 188 191 199 203 194 188 186 188 187 180 180 186 189 188 190 192 190 192 176 167 168 198 232 272
186 186 185 183 183 183 182 181 184 187 187 189 192 192 190 191 195 193 190 193 197 200 195 193 193 192 190 190 183 187 194 191 197 204 199 200 207 187 178 172 162 176 295
181 184 184 184 182 182 183 184 185 188 191 191 189 191 192 193 195 193 189 192 196 198 195 194 195 197 194 191 183 194 201 194 201 208 207 210 217 201 195 178 166 159 189
175 178 182 186 185 183 182 184 186 190 190 190 191 195 196 196 194 190 194 194 195 198 192 197 198 197 196 193 188 197 200 196 208 206 204 212 213 208 195 183 178 166 167
173 180 183 185 183 179 178 183 185 185 188 192 193 194 195 196 195 196 200 200 197 196 195 196 199 199 199 195 193 202 198 204 215 216 210 217 203 197 198 180 173 173 161
171 170 172 173 173 178 182 184 184 186 190 190 191 194 194 194 197 201 204 200 200 200 198 193 196 201 201 197 198 206 205 205 215 220 212 216 203 202 199 181 183 184 176
153 157 164 169 173 178 181 184 186 188 188 185 189 193 194 195 201 204 204 201 201 201 198 193 198 203 202 200 203 206 208 208 212 212 208 208 195 205 200 191 187 191 182
149 158 167 171 172 176 178 179 187 186 182 184 190 194 199 201 203 203 202 202 201 200 201 202 204 204 203 202 204 205 209 210 212 210 208 206 200 202 196 198 195 185 176
135 154 164 163 162 167 174 178 181 182 181 186 193 198 198 200 203 205 205 204 205 207 203 202 206 206 206 209 203 203 205 204 211 214 211 211 205 202 197 197 194 185 184
130 146 152 152 161 168 171 172 177 179 178 185 195 195 193 194 197 200 199 200 206 205 198 202 204 209 217 214 206 202 204 201 205 213 215 213 206 206 203 202 196 187 188
116 128 149 157 159 165 163 166 172 168 170 177 183 183 185 192 200 199 197 202 204 200 199 204 205 212 219 213 207 205 202 207 208 207 206 215 211 197 195 201 204 210 211
109 123 129 139 146 146 144 148 148 153 161 168 176 177 180 192 200 199 201 204 200 198 204 208 210 215 223 213 207 204 206 211 212 209 205 204 204 199 186 186 199 219 227
103 111 122 129 129 132 138 136 141 149 157 171 183 186 183 187 194 204 207 203 195 199 205 205 210 217 228 215 207 198 203 217 220 214 206 197 197 198 184 178 196 224 249
82 85 87 88 108 130 130 128 137 143 162 180 184 181 178 181 192 200 197 188 184 195 194 204 212 215 224 217 209 197 198 210 219 214 209 202 196 192 185 185 193 215 237
81 83 87 91 108 115 117 118 121 141 157 138 128 132 155 170 176 177 175 170 170 173 185 203 220 214 218 212 202 195 195 202 204 201 204 205 192 191 192 194 201 213 216
77 78 79 73 75 93 108 112 120 135 114 110 111 115 116 126 123 127 127 133 148 165 192 211 236 231 219 214 212 198 195 186 185 196 201 197 187 191 196 202 208 206 200
70 70 77 70 61 68 91 101 98 101 103 96 100 104 97 88 98 120 131 125 136 153 186 202 227 262 263 236 218 208 198 187 184 187 176 170 173 183 195 200 198 196 187
72 71 74 69 60 53 60 69 69 86 97 97 92 92 92 79 66 66 80 98 120 180 201 211 227 246 254 241 218 208 192 178 166 155 136 125 115 110 117 132 166 175 174
77 77 75 71 63 63 60 55 73 92 91 94 93 89 88 92 79 67 52 64 49 211 189 212 201 207 239 247 195 175 175 169 164 137 110 101 104 109 105 97 100 114 126
81 82 78 71 65 65 62 52 65 95 103 99 99 96 94 93 94 92 68 50 47 40 53 63 93 80 97 100 125 124 118 128 131 120 116 124 128 135 146 145 114 89 175